DateTimeUTC,F1_A11,F1_S11,BsB_S11,BsG_S11,BsR_S11,BbsB_S11,BbsG_S11,BbsR_S11,BaB_A11,BaG_A11,BaR_A11,Tu_S11,T_S11,Uu_S11,U_S11,P_S11,T1_A11
2021-08-19T09:00:00Z,00000200,20000000,,,,,,,0000.18,0000.47,0000.30,19.8,26.4,14.9,10.0,0676.1,31.1
2021-08-19T09:01:00Z,00000200,20000000,,,,,,,0000.07,-000.10,-000.08,19.8,26.4,14.9,10.0,0676.1,31.1
2021-08-19T09:02:00Z,00000200,20000000,,,,,,,-000.28,-000.17,0000.02,19.8,26.4,14.9,10.0,0676.1,31.1
2021-08-19T09:03:00Z,00000200,60000000,,,,,,,0000.27,0000.41,0000.03,19.8,26.4,14.9,10.0,0676.1,31.1
2021-08-19T09:04:00Z,00000200,40000000,0000.14,-000.03,-000.06,0000.12,-000.08,-000.25,-000.16,-000.24,-000.20,19.9,26.2,14.7,10.1,0677.0,31.1
2021-08-19T09:05:00Z,00000200,00000000,0000.00,0000.07,0000.34,0000.51,0000.26,0000.22,0000.20,-000.10,0000.12,20.0,26.2,14.7,10.1,0677.1,31.1
2021-08-19T09:06:00Z,00000200,00000000,-000.15,0000.04,0000.07,-000.35,-000.06,-000.02,0000.13,0000.23,0000.09,20.0,26.2,14.7,10.1,0677.1,31.1
2021-08-19T09:07:00Z,00000200,00000000,0000.16,-000.19,0000.39,0000.10,-000.18,0000.31,-000.15,-000.10,-000.03,20.0,26.2,14.8,10.2,0677.0,31.1
2021-08-19T09:08:00Z,00000200,00000000,0000.03,-000.19,0000.19,0000.55,0000.20,0000.07,0000.16,0000.20,0000.10,20.0,26.2,14.9,10.2,0677.0,31.1
2021-08-19T09:09:00Z,00000200,00000000,-000.17,0000.15,0000.68,0000.26,-000.15,0000.25,-000.09,0000.10,-000.26,20.0,26.2,14.9,10.2,0677.0,31.1
2021-08-19T09:10:00Z,00000200,00000000,0000.78,0000.25,0000.16,0000.18,-000.14,0000.11,0000.21,-000.14,0000.20,20.0,26.2,15.0,10.3,0677.0,31.1
2021-08-19T09:11:00Z,00000200,00000000,0000.12,-000.07,0000.53,0000.70,0000.05,0000.63,0000.13,-000.11,-000.12,20.0,26.2,15.0,10.3,0677.0,31.1
2021-08-19T09:12:00Z,00000200,00000000,0000.40,-000.06,0000.41,0000.22,0000.09,0000.11,0000.06,0000.34,0000.34,20.0,26.2,15.0,10.3,0677.0,31.1
2021-08-19T09:13:00Z,00000200,00000000,0000.36,0000.40,-000.14,0000.11,-000.17,0000.02,-000.33,-000.24,-000.02,20.0,26.2,15.1,10.4,0677.0,31.1
2021-08-19T09:14:00Z,00000200,00000000,-000.22,-000.07,-000.07,0001.12,0000.02,-000.37,0000.12,-000.00,-000.11,20.0,26.2,15.1,10.4,0677.0,31.1
2021-08-19T09:15:00Z,00000200,00000000,0000.61,0000.07,0000.36,0000.79,0000.22,0000.35,-000.04,-000.14,0000.18,20.0,26.1,15.0,10.3,0677.0,31.1
2021-08-19T09:16:00Z,00000200,00000000,-000.08,0000.48,0000.22,0000.62,0000.04,0000.03,0000.10,0000.22,-000.04,20.0,26.2,15.2,10.5,0676.9,31.1
2021-08-19T09:17:00Z,00000200,00000000,0000.48,0000.25,0000.11,0000.75,0000.19,0000.29,0000.14,0000.03,-000.01,20.0,26.2,15.2,10.5,0677.0,31.1
2021-08-19T09:18:00Z,00000200,00000000,0000.05,-000.05,0000.09,0000.04,0000.09,0000.01,-000.16,0000.11,-000.02,20.0,26.2,15.2,10.4,0676.9,31.1
2021-08-19T09:19:00Z,00000200,00000000,-000.02,0000.00,0000.19,0000.66,0000.17,-000.13,0000.17,0000.21,-000.08,20.0,26.2,15.2,10.5,0676.9,31.1
2021-08-19T09:20:00Z,00000200,00000000,0000.82,-000.15,0000.31,0000.86,0000.11,0000.19,0000.00,-000.19,0000.05,20.0,26.2,15.1,10.5,0676.9,31.1
2021-08-19T09:21:00Z,00000200,00000000,0000.17,-000.04,0000.14,0000.62,0000.16,-000.17,-000.25,-000.19,0000.03,20.0,26.2,15.2,10.5,0676.9,31.1
2021-08-19T09:22:00Z,00000200,00000000,-000.09,0000.20,0000.10,0000.57,-000.03,0000.12,0000.46,0000.26,-000.07,20.0,26.2,15.3,10.5,0676.9,31.1
2021-08-19T09:23:00Z,00000200,00000000,0000.54,0000.31,0000.06,0000.27,-000.17,-000.22,-000.15,-000.05,0000.07,20.0,26.2,15.3,10.5,0676.9,31.1
2021-08-19T09:24:00Z,00000200,00000000,0000.06,0000.10,0000.30,0000.49,0000.25,-000.10,-000.20,-000.27,-000.14,20.0,26.2,15.3,10.5,0676.9,31.1
2021-08-19T09:25:00Z,00000200,00000000,-000.35,0000.11,0000.18,0000.74,0000.07,-000.34,0000.29,0000.27,0000.20,20.0,26.2,15.2,10.5,0676.9,31.1
2021-08-19T09:26:00Z,00000200,00000000,0000.47,0000.22,0000.29,0000.37,-000.01,0000.17,-000.10,-000.11,0000.14,20.0,26.2,15.3,10.6,0676.9,31.1
2021-08-19T09:27:00Z,00000200,00000000,0000.74,0000.33,0000.16,0000.18,0000.00,-000.03,0000.05,-000.07,-000.13,20.1,26.2,15.3,10.6,0676.9,31.1
2021-08-19T09:28:00Z,00000200,00000000,0000.37,0000.08,0000.19,-000.21,-000.06,-000.24,0000.21,0000.54,-000.07,20.1,26.2,15.2,10.5,0676.9,31.1
2021-08-19T09:29:00Z,00000200,00000000,0000.75,-000.08,-000.02,0000.44,0000.17,0000.02,-000.20,-000.47,0000.22,20.1,26.2,15.2,10.5,0676.9,31.1
2021-08-19T09:30:00Z,00000200,00000000,0000.34,0000.27,0000.57,0000.07,0000.11,0000.32,-000.04,0000.26,-000.50,20.1,26.2,15.3,10.6,0676.9,31.1
2021-08-19T09:31:00Z,00000200,00000000,-000.27,0000.18,0000.20,-000.04,0000.17,0000.22,0000.17,0000.03,0000.38,20.1,26.2,15.2,10.5,0676.9,31.1
2021-08-19T09:32:00Z,00000200,00000000,0000.11,0000.21,0000.16,0001.06,0000.04,0000.23,0000.35,0000.20,-000.02,20.1,26.2,15.3,10.6,0676.9,31.1
2021-08-19T09:33:00Z,00000200,00000000,-000.62,0000.46,0000.20,0000.33,0000.07,-000.02,-000.45,-000.31,-000.01,20.1,26.2,15.3,10.6,0676.9,31.1
2021-08-19T09:34:00Z,00000200,00000000,-000.42,0000.07,0000.26,-000.33,0000.10,-000.01,0000.21,0000.07,0000.03,20.1,26.2,15.2,10.5,0676.9,31.1
2021-08-19T09:35:00Z,00000200,00000000,0000.32,-000.01,0000.12,0000.59,0000.29,0000.11,0000.02,0000.32,0000.02,20.1,26.2,15.3,10.6,0676.9,31.1
2021-08-19T09:36:00Z,00000200,00000000,0000.57,0000.10,0000.33,0000.64,-000.05,0000.40,-000.12,-000.46,-000.07,20.1,26.2,15.3,10.6,0676.9,31.1
2021-08-19T09:37:00Z,00000200,00000000,0000.62,0000.24,0000.33,-000.28,0000.12,-000.06,0000.29,0000.09,0000.12,20.1,26.2,15.2,10.5,0676.9,31.1
2021-08-19T09:38:00Z,00000200,00000000,-000.13,0000.17,0000.03,0000.39,0000.22,-000.08,-000.24,0000.31,-000.04,20.1,26.2,15.3,10.6,0676.9,31.1
2021-08-19T09:39:00Z,00000200,00000000,0000.43,0000.30,0000.12,0000.59,0000.02,0000.39,-000.17,-000.35,-000.02,20.1,26.2,15.3,10.6,0676.9,31.1
2021-08-19T09:40:00Z,00000200,00000000,0000.17,0000.03,0000.13,0001.07,0000.05,0000.16,0000.10,0000.24,0000.00,20.1,26.2,15.2,10.5,0676.9,31.1
2021-08-19T09:41:00Z,00000200,00000000,-000.13,0000.50,0000.36,0000.43,-000.02,0000.13,0000.32,0000.15,0000.27,20.1,26.2,15.2,10.5,0676.8,31.1
2021-08-19T09:42:00Z,00000200,00000000,0000.06,0000.10,0000.08,-000.11,0000.31,-000.01,-000.25,-000.12,-000.09,20.1,26.2,15.3,10.6,0676.9,31.1
2021-08-19T09:43:00Z,00000200,00000000,0000.23,0000.20,0000.38,0000.34,0000.16,-000.04,0000.44,0000.06,0000.07,20.1,26.2,15.3,10.6,0676.8,31.1
2021-08-19T09:44:00Z,00000200,00000000,-000.19,0000.12,0000.40,0000.03,0000.09,0000.67,-000.20,-000.06,0000.10,20.1,26.2,15.4,10.6,0676.9,31.1
2021-08-19T09:45:00Z,00000200,00000000,-000.16,0000.37,0000.62,0000.65,-000.13,0000.18,0000.09,0000.04,-000.17,20.1,26.2,15.3,10.6,0676.9,31.1
2021-08-19T09:46:00Z,00000200,00000000,0000.12,0000.17,0000.29,0000.87,-000.02,0000.27,-000.22,0000.05,-000.14,20.1,26.2,15.4,10.6,0676.9,31.1
2021-08-19T09:47:00Z,00000200,00000000,-000.46,0000.15,0000.12,0000.16,0000.21,-000.15,0000.14,-000.18,0000.18,20.1,26.2,15.3,10.6,0676.9,31.1
2021-08-19T09:48:00Z,00000200,00000000,0000.34,0000.17,0000.61,0000.27,-000.16,0000.21,-000.07,0000.37,-000.03,20.1,26.2,15.4,10.6,0676.9,31.1
2021-08-19T09:49:00Z,00000200,00000000,0000.54,-000.27,0000.05,0000.27,0000.00,0000.12,0000.06,-000.35,0000.42,20.1,26.2,15.3,10.5,0676.9,31.1
2021-08-19T09:50:00Z,00000200,00000000,-001.05,0000.29,0000.31,0000.61,0000.04,0000.20,0000.08,0000.11,-000.50,20.1,26.2,15.4,10.7,0676.9,31.1
2021-08-19T09:51:00Z,00000200,00000000,-000.05,0000.08,0000.06,0000.13,-000.20,-000.18,0000.03,0000.18,0000.32,20.1,26.2,15.2,10.6,0676.9,31.1
2021-08-19T09:52:00Z,00000200,00000000,0000.09,0000.18,0000.32,-000.13,0000.13,-000.11,0000.07,-000.05,-000.20,20.1,26.2,15.3,10.6,0676.9,31.1
2021-08-19T09:53:00Z,00000200,00000000,-000.18,-000.05,0000.23,0000.44,0000.08,-000.26,-000.19,0000.36,0000.01,20.1,26.2,15.4,10.7,0676.9,31.1
2021-08-19T09:54:00Z,00000200,00000000,0000.95,-000.33,0000.20,0000.49,0000.08,0000.01,0000.39,-000.47,-000.07,20.1,26.2,15.3,10.7,0676.9,31.1
2021-08-19T09:55:00Z,00000200,00000000,0000.69,0000.18,0000.48,0000.18,-000.10,0000.16,-000.24,0000.33,0000.32,20.1,26.2,15.4,10.7,0676.9,31.1
2021-08-19T09:56:00Z,00000200,00000000,0000.25,-000.18,0000.12,0000.62,0000.29,0000.25,0000.07,-000.06,-000.05,20.1,26.2,15.4,10.7,0676.9,31.1
2021-08-19T09:57:00Z,00000200,40000000,,,,,,,-000.10,-000.11,-000.27,20.2,26.2,15.1,10.5,0676.9,31.1
2021-08-19T09:58:00Z,00000200,60000000,,,,,,,0000.03,-000.14,0000.28,19.9,26.3,15.5,10.5,0675.9,31.1
2021-08-19T09:59:00Z,00000200,20000000,,,,,,,-000.18,0000.29,-000.30,19.9,26.4,15.6,10.5,0675.9,31.1
